Вернуться в каталог

SCOUT G-1 DEB

АктивенPO
NORAD 19559·DEBRIS·🇺🇸 United States

Запущен Aug 25, 1988 с Vandenberg Space Force Base

Loading…

Ближайшие Пролёты (ближайшие 24 часа)

TLE

СвежийSource: Space-Track

Эпоха: Sep 14, 2026, 08:07 UTC

1 19559U 88074F   26257.33820696  .00000099  00000-0  14417-3 0  9993
2 19559  89.3865  33.2922 0097016  44.8807 343.9690 13.45627123866250

Отслеживайте SCOUT G-1 DEB в реальном времени с AllMySat

Download on the App Store